Погода в Гызыларбате

Погода в Гызыларбате : погода сейчас, прогноз погоды и архив. Всё, что Вы хотите узнать о погоде в Гызыларбате!

Хотите узнать прогноз погоды в Гызыларбате? Тогда Вам сюда: Погода в Гызыларбате

Поиск расширенной информации на нашем сайте:

Другие новости

Новости СМИ2

Главная страница сайта

Новости сайта

03.07.2017

Напоминаем, что на нашем специализированном сайте Метеоцентр.Азия вы можете получить высокодетализированные автоматические прогнозы погоды по пунктам России, СНГ и мира в авиационном формате (включающие направление и скорость ветра, видимость, явления погоды, количество и форму облачности, нижнюю и верхнюю границу облачности).

Рекомендуем: Хохлома - хохломские узоры в векторе.

Погода в Гызыларбате - сегодня

Время (UTC), дата Ветер
(°,м/с) 
Видим.   Явления Облачность Т
(°С)
Тd
(°С)
f(%) Тe
(°С)
Pmin
(гПа)
dP
(гПа)
Po
(мм)
O2
(г/м3)
Тmin Tmax R s Состояние
почвы
00 24.05.18 090 (В) 10 км    ясно 
+23.8 +9 39 +24  1016.5  -0.7  755  278           
03 24.05.18 090 (В) 20000 м    ясно 
+22.8 +9.5 43 +23  1017  0.5  755  279  +21.6        сухая 
06 24.05.18 090 (В) 20000 м    ясно 
+28 +8.8 30 +28  1016.5  -0.4  755  274  +21.6         
09 24.05.18 090 (В) 20000 м    ясно 
+33.4 +13.2 29 +39  1014.4  -1.9  754  268           
12 24.05.18 100 (В) 20000 м    ясно 
+34.8 +12.6 26 +40  1011.9  -2.4  752  266           
15 24.05.18 090 (В) 20000 м    ясно 
+32.8 +13.7 31 +39  1010.9  -1.1  751  268    +35       
18 24.05.18 090 (В) 10 км    ясно 
+26.8 +10.7 36 +29  1011.8  0.7  752  274    +35       
21 24.05.18 090 (В) 10 км    ясно 
+23.8 +10 42 +25  1011.4  -0.5  751  277           
00 25.05.18 090 (В) 10 км    ясно 
+19.6 +10.7 56 +23  1010.4  -1.1  750  280           
03 25.05.18 090 (В) 20000 м    ясно 
+22.8 +10.6 46 +25  1011.4  1.1  751  277  +19.6        сухая 
06 25.05.18 100 (В) 20000 м    ясно 
+30.8 +13.7 35 +37  1010.5  -0.6  751  269  +19.6         
09 25.05.18 090 (В) 20000 м    ясно 
+36.1 +11.7 23 +40  1008.7  -1.7  749  265           
12 25.05.18 090 (В) 20000 м    ясно 
+37.1 +10.7 20 +39  1007  -1.6  748  264           
15 25.05.18 100 (В) 20000 м    ясно 
+34.5 +9.2 21 +35  1006.9  -0.2  748  266    +37.4       
18 25.05.18 100 (В) 10 км    ясно 
+27.2 +11.1 37 +30  1006.7  -0.4  748  272    +37.4       
21 25.05.18 тихо ()   10 км    ясно 
+23.6 +9.7 41 +24  1006  -0.8  747  275           
00 26.05.18 тихо ()   10 км    ясно 
+20.8 +10.5 52 +23  1006.2  0.1  747  278           
03 26.05.18 180 (Ю) 20000 м    3/0 средняя 
[Ac trans]
+27 +14.3 46 +35  1006  747  271           
06 26.05.18 тихо ()   20000 м    ясно 
+32.8 +14.2 33 +40  1006.9  1.1  748  266  +20.8         
09 26.05.18 270 (З) 20000 м    ясно 
+35.4 +13.5 27 +42  1005.9  -1  747  264           
12 26.05.18 350 (С) 20000 м    4/0 средняя 
[Ac trans]
+37.6 +15.1 26 +47  1004.5  -1.2  746  261           
15 26.05.18 300 (СЗ) 10 км    1/0 средняя 
[Ac trans]
+33.8 +16.5 36 +45  1005.6  0.9  747  264    +38       
18 26.05.18 250 (З) 10 км    ясно 
+29.4 +15.1 42 +38  1008.3  2.6  749  269    +38       
21 26.05.18 240 (ЮЗ) 10 км    4/0 верхняя 
[Ci fib]
+27.1 +15.5 49 +37  1009.3  0.9  750  272           
00 27.05.18 240 (ЮЗ) 10 км    3/0 верхняя 
[Ci fib]
+24.3 +14.2 53 +32  1010.8  1.4  751  275           
Время (UTC), дата Ветер
(°,м/с) 
Видим.   Явления Облачность Т
(°С)
Тd
(°С)
f(%) Тe
(°С)
Pmin
(гПа)
dP
(гПа)
Po
(мм)
O2
(г/м3)
Тmin Tmax R s Состояние
почвы

Для получения пояснительной информации подведите курсор к названию столбца.

ПОГОДА в Гызыларбате - архив

Всё, что Вы хотите узнать о погоде в Гызыларбате - удобно и подробно!

Выберите нужную дату (начиная с 1 января 2015* года) и нажмите кнопку "Найти".
Будут отображены архивные сводки погоды по пункту Гызыларбат, начиная с указанной даты.


Отображать данные в формате CSV (для использования в таблицах Excel)


Внимание! Наш архив погоды предназначен исключительно для личного некоммерческого использования в познавательных целях. Если Вам необходимы официальные справки о состоянии погоды (для производственных, юридических, коммерческих и т.п. целей), обращайтесь в органы Росгидромета.

*Примечание: данная дата относится к архиву по метеостанциям СССР (Россия, СНГ, Балтия).
Архив по метеостанциям Зарубежной Европы и Азии (кроме Китая) хранится 10 дней, по другим регионам земного шара (Китай, Африка, Америка, Австралия, Океания) - 1 день.

Гызыларбат - район местоположения метеостанции


Название, широта, долгота, высота метеостанции:
Гызыларбат 39°ш. 56.3°д. 92 м над ур. моря [Туркменистан]

Дополнительная информация

В oтличие oт бoльшинства пoгoдных сайтoв мы публикуем пoдрoбную метеoинфoрмацию в детальнoм прoфессиoнальнoм фoрмате.

Характеристики температуры и влажнoсти вoздуха измеряются на высoте 2 м в тени вдали oт зданий и деревьев.
Скoрoсть ветра измеряется на высoте 10 м (на урoвне рoста челoвека скoрoсть ветра ниже в 1.5-2 раза). Если метеoстанция нахoдится в гoрoде или в лесу, тo скoрoсть ветра занижена на 2-4 м/с пo сравнению с oткрытым местoм. Скoрoсть ветра над акватoриями крупных рек и oзёр, а также на вершинах хoлмoв на 2-5 м/с выше, чем в oбычных услoвиях.
Атмoсфернoе давление в разных тoчках местнoсти мoжет значительнo oтличаться oт давления на метеoстанции, в зависимoсти oт услoвий рельефа (при пoдъёме на 10 м давление пoнижается примернo на 1 мм рт.ст.).